Location: Davidson Heights
(40.5834°N, 80.2598°W)
Time: 20:14:14
(UTC+00:00)

N. Korean satellite - Visible Passes

Search period start: 29 November 2020 00:00
Search period end: 09 December 2020 00:00
Orbit: 452 x 504 km, 97.2° (Epoch: 29 November)

Date Brightness Start Highest point End Pass type
(mag) Time Alt. Az. Time Alt. Az. Time Alt. Az.
29 Nov 10.0 09:47:49 10° ENE 09:49:20 12° E 09:50:51 10° ESE visible
29 Nov 7.0 11:19:26 10° N 11:22:49 39° WNW 11:26:14 10° SW visible
30 Nov 6.5 10:52:57 10° NNE 10:56:35 90° NE 11:00:14 10° SSW visible
30 Nov 9.8 23:02:23 10° SW 23:04:23 15° W 23:06:24 10° WNW visible
01 Dec 8.1 10:26:50 10° NNE 10:30:15 38° E 10:33:42 10° SSE visible
01 Dec 8.6 22:34:50 10° SSW 22:37:55 31° W 22:41:03 10° NNW visible
02 Dec 9.4 10:01:13 10° NE 10:03:49 18° E 10:06:26 10° SE visible
02 Dec 7.6 11:34:04 10° NNW 11:37:08 26° WNW 11:40:13 10° SW visible
03 Dec 6.6 11:07:20 10° N 11:10:55 57° WNW 11:14:31 10° SSW visible
04 Dec 7.1 10:41:00 10° NNE 10:44:37 62° E 10:48:15 10° S visible
04 Dec 9.4 22:49:38 10° SW 22:52:17 21° W 22:54:58 10° NW visible
05 Dec 8.7 10:15:01 10° NE 10:18:13 27° E 10:21:23 10° SSE visible
05 Dec 8.0 11:48:47 10° NNW 11:51:20 18° WNW 11:53:53 10° WSW visible
05 Dec 7.7 22:22:30 10° S 22:25:49 46° W 22:29:11 10° NNW visible
06 Dec 9.9 09:49:50 10° ENE 09:51:42 13° E 09:53:34 10° ESE visible
06 Dec 7.1 11:21:45 10° N 11:25:09 36° WNW 11:28:33 10° SW visible
07 Dec 6.5 10:55:11 10° N 10:58:52 83° WNW 11:02:33 10° SSW visible
07 Dec 9.8 23:04:44 10° SW 23:06:35 14° W 23:08:29 10° WNW visible
08 Dec 7.9 10:28:58 10° NNE 10:32:29 42° E 10:36:00 10° S visible
08 Dec 8.7 22:36:59 10° SSW 22:40:03 30° W 22:43:10 10° NNW visible
